Ana Sayfa
METAR-TAF:

METAR-TAF

Havaalanları :

Oswego County Airport

Fulton, New York, Amerika Birleşik Devletleri

Enlem: 43-21-03N, Boylam: 076-23-17W, yükseklik: 145 m

Güncel hava durumu gözlemi

Rapor saat 17:54 UTC de 55 dakika önce yapıldı.
Rüzgar kuzeybatıdan 7 kt
Sıcaklık 27°C
Nem 45%
Basınç 1019 hPa
Görüş mesafesi: 16.1 km
Açık gökyüzü

METAR: KFZY 151754Z AUTO 31007KT 10SM CLR 27/14 A3010 RMK AO2 SLP191 T02670144 10272 20178 58008

Saat: 14:49 (18:49 UTC)


TAF: eksik

4.000'den fazla havaalanı için hava durumu gözlemleri ve tahminleri (METAR ve TAF raporları).

Kullanılabilir istasyonlar harita üzerinde sarı ve kırmızı noktalarla gösterilir.

İstasyonun adını görmek için fareyi noktanın üzerinde gezdirin.

Sonrasında hava gözlem ve tahminlerini görmek için tıklayın.

Haritayı değiştirmek için: yaklaştırmak için siyah artı işaretli yeşil düğmeye ve uzaklaştırmak için de eksi işaretli düğmeye hızla tıklayın; bitişik haritalar için yeşil okları kullanın.


METAR-TAF: